This is the latest recevied weather packets stored in our database for station/object SV2RIM-2. If no packets are shown the sender has not sent any weather packets the latest 10 day(s).
| Time | Temp. | Humidity | Pressure | Rain* | Wind** | Luminosity | Snow |
|---|---|---|---|---|---|---|---|
| 1788073818 | 25° C | 70% | 1016.5 hPa | - | - | - | - |
| 1788073219 | 24.44° C | 71% | 1016.5 hPa | - | - | - | - |
| 1788072618 | 24.44° C | 72% | 1016.3 hPa | - | - | - | - |
| 1788072018 | 24.44° C | 72% | 1016.2 hPa | - | - | - | - |
| 1788071419 | 24.44° C | 71% | 1016.2 hPa | - | - | - | - |
| 1788070818 | 24.44° C | 71% | 1016.1 hPa | - | - | - | - |
| 1788070218 | 24.44° C | 71% | 1016.1 hPa | - | - | - | - |
| 1788069618 | 24.44° C | 71% | 1016 hPa | - | - | - | - |
| 1788069018 | 24.44° C | 71% | 1015.9 hPa | - | - | - | - |
| 1788068418 | 23.89° C | 70% | 1015.9 hPa | - | - | - | - |
| 1788067818 | 23.89° C | 71% | 1015.8 hPa | - | - | - | - |
| 1788067218 | 23.33° C | 70% | 1015.7 hPa | - | - | - | - |
| 1788066618 | 23.33° C | 70% | 1015.5 hPa | - | - | - | - |
| 1788066018 | 22.78° C | 71% | 1015.2 hPa | - | - | - | - |
| 1788065418 | 22.78° C | 70% | 1015.1 hPa | - | - | - | - |
| 1788064818 | 22.78° C | 70% | 1015.2 hPa | - | - | - | - |
| 1788064218 | 22.78° C | 69% | 1015.2 hPa | - | - | - | - |
| 1788063619 | 22.78° C | 68% | 1015.2 hPa | - | - | - | - |
| 1788063019 | 21.67° C | 71% | 1015.1 hPa | - | - | - | - |
| 1788062418 | 21.67° C | 71% | 1015.2 hPa | - | - | - | - |
| 1788061818 | 21.67° C | 71% | 1015.2 hPa | - | - | - | - |
| 1788061218 | 21.67° C | 71% | 1015.2 hPa | - | - | - | - |
| 1788060618 | 21.67° C | 71% | 1015.3 hPa | - | - | - | - |
| 1788060019 | 21.11° C | 71% | 1015.3 hPa | - | - | - | - |
| 1788059418 | 21.11° C | 72% | 1015.5 hPa | - | - | - | - |
* Rain since midnight (hover to see other rain measurements)
** Current wind speed in m/s (hover to see current wind gust speed)